Weather History for MMMZ - October, 2011

Change the Weather History Date:

Tuesday, October 4, 2011

  Actual Average Record
Temperature  
Mean Temperature 82 °F -  
Max Temperature 89 °F 86 °F 91 °F (1997)
Min Temperature 75 °F 72 °F 69 °F (2001)
Cooling Degree Days 17    
Growing Degree Days 32 (Base 50)    
Moisture  
Dew Point 76 °F    
Average Humidity 81    
Maximum Humidity 89    
Minimum Humidity 62    
Precipitation  
Precipitation 0.00 in - - ()
Sea Level Pressure  
Sea Level Pressure 29.85 in    
Wind  
Wind Speed 5 mph ()    
Max Wind Speed 12 mph    
Max Gust Speed -    
Visibility 9.8 miles    
Events Thunderstorm    
Averages and records for this station are not official NWS values.
T = Trace of Precipitation, MM = Missing Value Source: Averaged Metar Reports

Daily Weather History Graph

Daily Weather History Graph

Search for Another Location

Airport or City:

Trip Planner

Search our weather history database for the weather conditions in past years. The results will help you decide how hot, cold, wet, or windy it might be!

Date:

Astronomy

Oct. 04, 2011 Rise Set
Actual Time 6:57 AM MDT 6:49 PM MDT
Civil Twilight 6:35 AM MDT 7:12 PM MDT
Nautical Twilight 6:09 AM MDT 7:38 PM MDT
Astronomical Twilight 5:42 AM MDT 8:04 PM MDT
Moon 2:11 PM MDT (10/4) 12:29 AM MDT (10/4)
Length of Visible Light 12h 36m
Length of Day
11h 51m
First Quarter, 56% of the Moon is Illuminated
Oct 4
First Quarter
Oct 11
Full
Oct 19
Last Quarter
Oct 26
New
Nov 2
First Quarter

Hourly Weather History & Observations

Time (MDT) Temp. Heat Index Dew Point Humidity Pressure Visibility Wind Dir Wind Speed Gust Speed Precip Events Conditions
12:41 AM 78.8 °F - 75.2 °F 89% 29.87 in 10.0 mi NNE 5.8 mph - N/A   Clear
1:50 AM 78.8 °F - 75.2 °F 89% 29.86 in 10.0 mi Calm Calm - N/A   Clear
2:53 AM 78.8 °F - 75.2 °F 89% 29.85 in 10.0 mi NNE 4.6 mph - N/A   Mostly Cloudy
3:52 AM 78.8 °F - 75.2 °F 89% 29.84 in 10.0 mi Calm Calm - N/A   Scattered Clouds
4:43 AM 78.8 °F - 73.4 °F 83% 29.84 in 10.0 mi North 4.6 mph - N/A Thunderstorm Thunderstorm
5:47 AM 77.0 °F - 73.4 °F 89% 29.85 in 10.0 mi NNE 6.9 mph - N/A   Scattered Clouds
6:45 AM 75.2 °F - 71.6 °F 89% 29.86 in 8.0 mi North 4.6 mph - N/A   Scattered Clouds
7:40 AM 77.0 °F - 73.4 °F 89% 29.88 in 8.0 mi North 4.6 mph - N/A   Partly Cloudy
8:43 AM 80.6 °F 87.1 °F 77.0 °F 89% 29.89 in 8.0 mi NNE 5.8 mph - N/A   Clear
9:42 AM 84.2 °F 96.1 °F 78.8 °F 84% 29.91 in 8.0 mi East 4.6 mph - N/A   Clear
10:40 AM 86.0 °F 96.9 °F 77.0 °F 74% 29.90 in 12.0 mi WSW 4.6 mph - N/A   Mostly Cloudy
11:41 AM 87.8 °F 99.7 °F 77.0 °F 70% 29.89 in 12.0 mi WSW 5.8 mph - N/A   Scattered Clouds
12:52 PM 89.6 °F 104.7 °F 78.8 °F 70% 29.86 in 12.0 mi West 10.4 mph - N/A   Scattered Clouds
1:41 PM 89.6 °F 104.7 °F 78.8 °F 70% 29.85 in 10.0 mi WSW 10.4 mph - N/A   Scattered Clouds
2:40 PM 89.6 °F 102.2 °F 77.0 °F 66% 29.83 in 10.0 mi SW 10.4 mph - N/A   Partly Cloudy
3:42 PM 89.6 °F 99.8 °F 75.2 °F 62% 29.80 in 10.0 mi West 10.4 mph - N/A   Partly Cloudy
4:43 PM 87.8 °F 99.7 °F 77.0 °F 70% 29.80 in 10.0 mi WSW 11.5 mph - N/A   Partly Cloudy
5:43 PM 86.0 °F 95.1 °F 75.2 °F 70% 29.89 in 10.0 mi WSW 9.2 mph - N/A   Clear
6:41 PM 82.4 °F 89.5 °F 75.2 °F 79% 29.80 in 10.0 mi WSW 6.9 mph - N/A   Clear
7:45 PM 80.6 °F 86.2 °F 75.2 °F 84% 29.82 in 8.0 mi WNW 5.8 mph - N/A   Clear
8:43 PM 80.6 °F 86.2 °F 75.2 °F 84% 29.83 in 10.0 mi Calm Calm - N/A   Scattered Clouds
9:47 PM 78.8 °F - 75.2 °F 89% 29.86 in 10.0 mi NNW 5.8 mph - N/A   Scattered Clouds
10:48 PM 78.8 °F - 75.2 °F 89% 29.86 in 10.0 mi North 6.9 mph - N/A   Scattered Clouds
11:40 PM 78.8 °F - 75.2 °F 89% 29.86 in 10.0 mi NNW 5.8 mph - N/A   Scattered Clouds